WAT4855 SKRG-SVMI

Flight info

Callsign WAT4855
Flight time 1h 26m
Altitude 35000
Route DIPRA1C DIPRA UW26 CUC UW34 LFA UW8 BRM UW40 PBL ALDAK1
Aircraft A321/M-SDE3FGHIRWY/LB1

Departure

Time 2026-05-04 18:07
Airport Jose Maria Córdova International Airport (SKRG)

Arrival

Time 2026-05-04 19:33
Airport Maiquetía Simón Bolívar International Airport (SVMI)
Time Latitude Longitude Altitude Speed Heading
2026-05-04 17:27 6.16949 -75.42836 6979 ft 0 kts 346°
2026-05-04 17:54 6.16943 -75.42835 6985 ft 4 kts 340°
2026-05-04 17:54 6.16921 -75.42831 6985 ft 4 kts 355°
2026-05-04 17:55 6.16894 -75.42829 6984 ft 2 kts 360°
2026-05-04 17:55 6.16888 -75.42829 6984 ft 0 kts 360°
2026-05-04 17:58 6.16892 -75.42829 6984 ft 2 kts
2026-05-04 17:58 6.16903 -75.42812 6982 ft 5 kts 83°
2026-05-04 17:58 6.16919 -75.42770 6984 ft 7 kts 58°
2026-05-04 17:59 6.16952 -75.42723 6982 ft 9 kts 51°
2026-05-04 17:59 6.16995 -75.42672 6982 ft 10 kts 44°
2026-05-04 17:59 6.16994 -75.42557 6980 ft 13 kts 148°
2026-05-04 18:00 6.16963 -75.42506 6986 ft 8 kts 92°
2026-05-04 18:00 6.16958 -75.42487 6984 ft 3 kts 117°
2026-05-04 18:00 6.16937 -75.42484 6984 ft 5 kts 177°
2026-05-04 18:00 6.16889 -75.42483 6984 ft 9 kts 180°
2026-05-04 18:01 6.16815 -75.42484 6983 ft 13 kts 181°
2026-05-04 18:01 6.16715 -75.42487 6981 ft 16 kts 181°
2026-05-04 18:01 6.16595 -75.42487 6978 ft 19 kts 179°
2026-05-04 18:02 6.16298 -75.42483 6972 ft 24 kts 179°
2026-05-04 18:02 6.16124 -75.42481 6969 ft 26 kts 179°
2026-05-04 18:02 6.15938 -75.42479 6966 ft 28 kts 179°
2026-05-04 18:02 6.15740 -75.42477 6963 ft 29 kts 179°
2026-05-04 18:03 6.15565 -75.42475 6960 ft 9 kts 180°
2026-05-04 18:03 6.15490 -75.42475 6959 ft 12 kts 180°
2026-05-04 18:03 6.15393 -75.42475 6957 ft 16 kts 180°
2026-05-04 18:03 6.15274 -75.42473 6954 ft 18 kts 179°
2026-05-04 18:04 6.15136 -75.42471 6952 ft 21 kts 179°
2026-05-04 18:04 6.14982 -75.42470 6949 ft 23 kts 180°
2026-05-04 18:04 6.14854 -75.42406 6946 ft 8 kts 70°
2026-05-04 18:05 6.14886 -75.42348 6948 ft 10 kts 51°
2026-05-04 18:05 6.14947 -75.42307 6948 ft 9 kts 30°
2026-05-04 18:05 6.14979 -75.42297 6949 ft 0 kts
2026-05-04 18:06 6.15732 -75.42306 6963 ft 116 kts 360°
2026-05-04 18:06 6.16718 -75.42311 6981 ft 166 kts 359°
2026-05-04 18:06 6.17976 -75.42330 7371 ft 179 kts 359°
2026-05-04 18:07 6.19193 -75.42346 8190 ft 175 kts
2026-05-04 18:07 6.20447 -75.42345 8606 ft 187 kts
2026-05-04 18:07 6.21700 -75.41914 8705 ft 200 kts 47°
2026-05-04 18:07 6.22297 -75.40662 8860 ft 208 kts 88°
2026-05-04 18:08 6.22397 -75.39155 9013 ft 225 kts 81°
2026-05-04 18:08 6.22907 -75.37606 9122 ft 243 kts 70°
2026-05-04 18:08 6.23610 -75.35972 9236 ft 266 kts 69°
2026-05-04 18:08 6.24415 -75.34265 9509 ft 279 kts 65°
2026-05-04 18:09 6.26172 -75.30708 10513 ft 287 kts 64°
2026-05-04 18:09 6.27961 -75.27092 11606 ft 291 kts 65°
2026-05-04 18:10 6.28859 -75.25264 12147 ft 293 kts 65°
2026-05-04 18:10 6.29756 -75.23420 12668 ft 295 kts 66°
2026-05-04 18:10 6.30628 -75.21553 13227 ft 296 kts 66°
2026-05-04 18:10 6.31493 -75.19669 13761 ft 298 kts 66°
2026-05-04 18:11 6.32359 -75.17772 14245 ft 300 kts 66°
2026-05-04 18:11 6.33233 -75.15865 14657 ft 301 kts 66°
2026-05-04 18:11 6.34113 -75.13946 15095 ft 304 kts 67°
2026-05-04 18:11 6.35001 -75.12010 15579 ft 305 kts 66°
2026-05-04 18:12 6.35896 -75.10066 16050 ft 307 kts 66°
2026-05-04 18:12 6.36797 -75.08109 16518 ft 309 kts 66°
2026-05-04 18:12 6.37702 -75.06141 16972 ft 311 kts 66°
2026-05-04 18:12 6.38622 -75.04137 17207 ft 323 kts 66°
2026-05-04 18:13 6.39581 -75.02046 17323 ft 336 kts 66°
2026-05-04 18:13 6.40579 -74.99877 17447 ft 348 kts 66°
2026-05-04 18:13 6.42685 -74.95303 17744 ft 371 kts 66°
2026-05-04 18:14 6.43777 -74.92930 18090 ft 376 kts 66°
2026-05-04 18:14 6.44878 -74.90532 18502 ft 379 kts 66°
2026-05-04 18:14 6.45990 -74.88116 18881 ft 382 kts 66°
2026-05-04 18:15 6.48242 -74.83241 19630 ft 387 kts 66°
2026-05-04 18:15 6.50514 -74.78302 20372 ft 392 kts 66°
2026-05-04 18:15 6.51660 -74.75805 20749 ft 394 kts 66°
2026-05-04 18:16 6.52811 -74.73294 21125 ft 397 kts 66°
2026-05-04 18:16 6.53970 -74.70769 21489 ft 399 kts 66°
2026-05-04 18:16 6.55123 -74.68259 21844 ft 402 kts 66°
2026-05-04 18:17 6.57480 -74.63128 22535 ft 407 kts 66°
2026-05-04 18:17 6.58671 -74.60535 22866 ft 409 kts 66°
2026-05-04 18:17 6.61077 -74.55304 23456 ft 415 kts 65°
2026-05-04 18:18 6.62353 -74.52691 23720 ft 418 kts 63°
2026-05-04 18:18 6.63741 -74.50117 23971 ft 420 kts 61°
2026-05-04 18:18 6.65201 -74.47562 24208 ft 422 kts 60°
2026-05-04 18:18 6.66691 -74.45009 24460 ft 424 kts 60°
2026-05-04 18:19 6.69682 -74.39853 24960 ft 428 kts 60°
2026-05-04 18:19 6.71166 -74.37244 25201 ft 430 kts 61°
2026-05-04 18:19 6.72638 -74.34619 25428 ft 432 kts 61°
2026-05-04 18:20 6.74112 -74.31979 25678 ft 433 kts 61°
2026-05-04 18:20 6.75587 -74.29330 25923 ft 435 kts 61°
2026-05-04 18:20 6.77070 -74.26669 26162 ft 437 kts 61°
2026-05-04 18:20 6.78560 -74.23999 26395 ft 439 kts 61°
2026-05-04 18:21 6.80059 -74.21318 26616 ft 441 kts 61°
2026-05-04 18:21 6.81568 -74.18622 26845 ft 443 kts 61°
2026-05-04 18:21 6.83082 -74.15919 27071 ft 445 kts 61°
2026-05-04 18:21 6.84604 -74.13203 27306 ft 446 kts 62°
2026-05-04 18:22 6.86131 -74.10471 27535 ft 448 kts 62°
2026-05-04 18:22 6.87661 -74.07735 27759 ft 450 kts 62°
2026-05-04 18:22 6.89182 -74.05019 27953 ft 452 kts 62°
2026-05-04 18:22 6.90728 -74.02260 28155 ft 454 kts 62°
2026-05-04 18:23 6.92285 -73.99487 28373 ft 456 kts 62°
2026-05-04 18:23 6.93844 -73.96705 28588 ft 457 kts 62°
2026-05-04 18:23 6.95408 -73.93911 28792 ft 459 kts 62°
2026-05-04 18:23 6.96974 -73.91105 28989 ft 461 kts 62°
2026-05-04 18:24 6.98544 -73.88288 29177 ft 462 kts 62°
2026-05-04 18:24 7.00120 -73.85463 29391 ft 464 kts 62°
2026-05-04 18:24 7.01707 -73.82626 29588 ft 466 kts 62°
2026-05-04 18:24 7.03378 -73.79826 29840 ft 468 kts 56°
2026-05-04 18:25 7.05264 -73.77148 30035 ft 470 kts 56°
2026-05-04 18:25 7.07158 -73.74458 30210 ft 472 kts 56°
2026-05-04 18:25 7.09054 -73.71757 30395 ft 473 kts 56°
2026-05-04 18:25 7.10957 -73.69045 30583 ft 474 kts 56°
2026-05-04 18:26 7.12858 -73.66336 30845 ft 473 kts 56°
2026-05-04 18:26 7.14755 -73.63634 31123 ft 472 kts 56°
2026-05-04 18:26 7.16653 -73.60933 31377 ft 472 kts 56°
2026-05-04 18:26 7.18545 -73.58240 31623 ft 471 kts 56°
2026-05-04 18:27 7.20440 -73.55546 31874 ft 471 kts 55°
2026-05-04 18:27 7.22331 -73.52851 32127 ft 471 kts 56°
2026-05-04 18:27 7.24219 -73.50157 32395 ft 470 kts 56°
2026-05-04 18:27 7.26079 -73.47504 32644 ft 470 kts 55°
2026-05-04 18:28 7.27964 -73.44816 32889 ft 470 kts 56°
2026-05-04 18:28 7.29851 -73.42125 33079 ft 471 kts 55°
2026-05-04 18:28 7.31740 -73.39435 33296 ft 471 kts 55°
2026-05-04 18:28 7.33634 -73.36740 33568 ft 471 kts 55°
2026-05-04 18:29 7.35523 -73.34047 33786 ft 471 kts 55°
2026-05-04 18:29 7.37407 -73.31356 34025 ft 470 kts 55°
2026-05-04 18:29 7.39293 -73.28664 34225 ft 469 kts 55°
2026-05-04 18:29 7.41166 -73.25991 34445 ft 466 kts 55°
2026-05-04 18:30 7.44899 -73.20667 34927 ft 465 kts 55°
2026-05-04 18:30 7.46766 -73.18003 35017 ft 464 kts 55°
2026-05-04 18:31 7.50480 -73.12711 35044 ft 462 kts 55°
2026-05-04 18:31 7.54176 -73.07425 35087 ft 461 kts 55°
2026-05-04 18:32 7.57870 -73.02140 35078 ft 461 kts 55°
2026-05-04 18:32 7.61568 -72.96858 35080 ft 461 kts 55°
2026-05-04 18:33 7.65239 -72.91605 35081 ft 462 kts 54°
2026-05-04 18:33 7.68941 -72.86308 35075 ft 463 kts 54°
2026-05-04 18:34 7.72651 -72.80997 35047 ft 464 kts 54°
2026-05-04 18:34 7.76366 -72.75678 35037 ft 464 kts 54°
2026-05-04 18:35 7.80087 -72.70353 35019 ft 464 kts 54°
2026-05-04 18:35 7.83804 -72.65022 34990 ft 465 kts 54°
2026-05-04 18:36 7.87522 -72.59689 34984 ft 465 kts 54°
2026-05-04 18:36 7.91247 -72.54355 34987 ft 465 kts 54°
2026-05-04 18:37 7.95591 -72.49567 34988 ft 463 kts 37°
2026-05-04 18:37 8.00678 -72.45573 34984 ft 463 kts 37°
2026-05-04 18:38 8.05764 -72.41569 34983 ft 464 kts 37°
2026-05-04 18:38 8.09983 -72.38230 34995 ft 464 kts 37°
2026-05-04 18:39 8.15064 -72.34206 34986 ft 464 kts 37°
2026-05-04 18:39 8.20152 -72.30187 34986 ft 464 kts 37°
2026-05-04 18:40 8.24931 -72.25817 34957 ft 465 kts 51°
2026-05-04 18:40 8.28696 -72.20504 34982 ft 465 kts 54°
2026-05-04 18:41 8.32414 -72.15155 34974 ft 466 kts 54°
2026-05-04 18:41 8.36139 -72.09799 35006 ft 466 kts 53°
2026-05-04 18:42 8.39867 -72.04431 34962 ft 467 kts 54°
2026-05-04 18:42 8.43598 -71.99059 34966 ft 467 kts 53°
2026-05-04 18:43 8.47309 -71.93721 34992 ft 468 kts 54°
2026-05-04 18:43 8.51046 -71.88336 34958 ft 468 kts 54°
2026-05-04 18:44 8.54781 -71.82951 34982 ft 468 kts 54°
2026-05-04 18:44 8.58512 -71.77567 34982 ft 468 kts 54°
2026-05-04 18:45 8.62248 -71.72182 34982 ft 468 kts 54°
2026-05-04 18:45 8.65981 -71.66791 34987 ft 468 kts 54°
2026-05-04 18:46 8.69710 -71.61410 34984 ft 467 kts 54°
2026-05-04 18:46 8.73432 -71.56028 35029 ft 467 kts 54°
2026-05-04 18:47 8.77148 -71.50658 34987 ft 466 kts 53°
2026-05-04 18:47 8.80860 -71.45287 34986 ft 466 kts 54°
2026-05-04 18:48 8.84546 -71.39954 34987 ft 466 kts 54°
2026-05-04 18:48 8.88257 -71.34586 34988 ft 466 kts 54°
2026-05-04 18:49 8.91968 -71.29211 34960 ft 466 kts 54°
2026-05-04 18:49 8.95681 -71.23838 34998 ft 466 kts 54°
2026-05-04 18:50 8.99384 -71.18469 35009 ft 465 kts 54°
2026-05-04 18:50 9.03082 -71.13109 35055 ft 464 kts 54°
2026-05-04 18:51 9.06772 -71.07756 34998 ft 463 kts 54°
2026-05-04 18:51 9.10458 -71.02409 34997 ft 463 kts 54°
2026-05-04 18:52 9.14141 -70.97058 35033 ft 463 kts 54°
2026-05-04 18:52 9.17822 -70.91706 34969 ft 463 kts 54°
2026-05-04 18:53 9.21501 -70.86359 34991 ft 463 kts 54°
2026-05-04 18:53 9.25175 -70.81019 35000 ft 462 kts 54°
2026-05-04 18:54 9.28822 -70.75718 34998 ft 461 kts 55°
2026-05-04 18:54 9.32487 -70.70390 34973 ft 461 kts 53°
2026-05-04 18:55 9.36149 -70.65067 34969 ft 460 kts 53°
2026-05-04 18:55 9.41636 -70.57087 34991 ft 460 kts 54°
2026-05-04 18:56 9.44759 -70.51423 34957 ft 461 kts 61°
2026-05-04 18:56 9.47716 -70.45658 34982 ft 461 kts 60°
2026-05-04 18:57 9.50679 -70.39898 34986 ft 461 kts 61°
2026-05-04 18:57 9.53647 -70.34142 34985 ft 461 kts 61°
2026-05-04 18:58 9.56607 -70.28382 34979 ft 461 kts 60°
2026-05-04 18:58 9.59559 -70.22619 34979 ft 461 kts 60°
2026-05-04 18:59 9.62513 -70.16855 35000 ft 461 kts 61°
2026-05-04 18:59 9.65472 -70.11087 34995 ft 461 kts 61°
2026-05-04 19:00 9.68407 -70.05355 34974 ft 461 kts 61°
2026-05-04 19:00 9.71368 -69.99584 34975 ft 462 kts 61°
2026-05-04 19:01 9.74332 -69.93807 34977 ft 462 kts 61°
2026-05-04 19:01 9.77293 -69.88023 34986 ft 462 kts 61°
2026-05-04 19:02 9.80254 -69.82230 34954 ft 462 kts 61°
2026-05-04 19:02 9.83211 -69.76450 34969 ft 462 kts 60°
2026-05-04 19:03 9.86171 -69.70676 34969 ft 461 kts 61°
2026-05-04 19:03 9.89124 -69.64902 34981 ft 461 kts 61°
2026-05-04 19:04 9.92070 -69.59126 34977 ft 461 kts 61°
2026-05-04 19:04 9.94987 -69.53388 34960 ft 461 kts 59°
2026-05-04 19:05 9.97930 -69.47607 34974 ft 461 kts 61°
2026-05-04 19:05 10.00881 -69.41826 34975 ft 461 kts 59°
2026-05-04 19:06 10.03826 -69.36042 34981 ft 462 kts 60°
2026-05-04 19:06 10.06100 -69.29919 34966 ft 464 kts 68°
2026-05-04 19:07 10.08247 -69.23740 34970 ft 464 kts 68°
2026-05-04 19:07 10.10395 -69.17565 34962 ft 464 kts 68°
2026-05-04 19:08 10.11465 -69.14495 34742 ft 458 kts 68°
2026-05-04 19:08 10.12522 -69.11466 34505 ft 453 kts 68°
2026-05-04 19:08 10.13568 -69.08462 34280 ft 450 kts 68°
2026-05-04 19:08 10.14610 -69.05473 34056 ft 449 kts 68°
2026-05-04 19:09 10.15648 -69.02497 33816 ft 447 kts 68°
2026-05-04 19:09 10.16684 -68.99531 33552 ft 444 kts 68°
2026-05-04 19:09 10.17695 -68.96630 33106 ft 440 kts 68°
2026-05-04 19:09 10.18711 -68.93708 32621 ft 438 kts 68°
2026-05-04 19:10 10.19719 -68.90801 32134 ft 435 kts 68°
2026-05-04 19:10 10.20720 -68.87911 31652 ft 433 kts 68°
2026-05-04 19:10 10.21718 -68.85030 31173 ft 431 kts 68°
2026-05-04 19:10 10.22709 -68.82165 30701 ft 430 kts 68°
2026-05-04 19:11 10.23696 -68.79309 30227 ft 428 kts 68°
2026-05-04 19:11 10.24681 -68.76462 29722 ft 426 kts 68°
2026-05-04 19:11 10.25660 -68.73636 29258 ft 423 kts 68°
2026-05-04 19:11 10.26634 -68.70832 28815 ft 419 kts 68°
2026-05-04 19:12 10.27601 -68.68053 28389 ft 416 kts 68°
2026-05-04 19:12 10.29510 -68.62551 27529 ft 410 kts 69°
2026-05-04 19:12 10.30456 -68.59826 27107 ft 408 kts 68°
2026-05-04 19:13 10.31395 -68.57116 26692 ft 406 kts 69°
2026-05-04 19:13 10.32328 -68.54414 26281 ft 404 kts 68°
2026-05-04 19:13 10.33255 -68.51726 25865 ft 402 kts 69°
2026-05-04 19:13 10.34178 -68.49057 25432 ft 402 kts 68°
2026-05-04 19:14 10.35106 -68.46371 25004 ft 401 kts 69°
2026-05-04 19:14 10.36027 -68.43705 24565 ft 397 kts 68°
2026-05-04 19:14 10.36930 -68.41093 24134 ft 390 kts 68°
2026-05-04 19:14 10.37822 -68.38515 23704 ft 384 kts 69°
2026-05-04 19:15 10.38698 -68.35974 23216 ft 378 kts 69°
2026-05-04 19:15 10.39557 -68.33478 22782 ft 370 kts 68°
2026-05-04 19:15 10.40397 -68.31038 22359 ft 362 kts 69°
2026-05-04 19:15 10.41221 -68.28653 21942 ft 354 kts 70°
2026-05-04 19:16 10.42032 -68.26318 21531 ft 347 kts 70°
2026-05-04 19:16 10.42826 -68.24031 21127 ft 340 kts 70°
2026-05-04 19:16 10.43595 -68.21806 20736 ft 337 kts 71°
2026-05-04 19:16 10.44366 -68.19567 20348 ft 335 kts 71°
2026-05-04 19:17 10.45131 -68.17345 19953 ft 332 kts 71°
2026-05-04 19:17 10.45890 -68.15136 19560 ft 330 kts 71°
2026-05-04 19:17 10.46646 -68.12939 19175 ft 328 kts 72°
2026-05-04 19:17 10.47399 -68.10753 18781 ft 327 kts 72°
2026-05-04 19:18 10.48148 -68.08576 18377 ft 326 kts 72°
2026-05-04 19:18 10.48759 -68.06369 17939 ft 323 kts 78°
2026-05-04 19:18 10.49280 -68.04159 17528 ft 320 kts 78°
2026-05-04 19:18 10.49800 -68.01969 17131 ft 317 kts 78°
2026-05-04 19:19 10.50314 -67.99803 16741 ft 314 kts 78°
2026-05-04 19:19 10.50825 -67.97650 16348 ft 312 kts 77°
2026-05-04 19:19 10.51333 -67.95515 15965 ft 310 kts 78°
2026-05-04 19:19 10.51836 -67.93392 15583 ft 308 kts 78°
2026-05-04 19:20 10.52335 -67.91281 15202 ft 306 kts 78°
2026-05-04 19:20 10.52831 -67.89180 14828 ft 305 kts 78°
2026-05-04 19:20 10.53317 -67.87118 14462 ft 304 kts 78°
2026-05-04 19:20 10.53814 -67.85006 14082 ft 303 kts 78°
2026-05-04 19:21 10.54298 -67.82960 13709 ft 302 kts 78°
2026-05-04 19:21 10.54789 -67.80891 13310 ft 300 kts 78°
2026-05-04 19:21 10.55280 -67.78834 12930 ft 298 kts 78°
2026-05-04 19:21 10.55764 -67.76794 12569 ft 296 kts 78°
2026-05-04 19:22 10.56241 -67.74766 12197 ft 295 kts 78°
2026-05-04 19:22 10.56714 -67.72753 11870 ft 292 kts 78°
2026-05-04 19:22 10.57186 -67.70752 11521 ft 290 kts 79°
2026-05-04 19:22 10.57655 -67.68763 11166 ft 289 kts 79°
2026-05-04 19:23 10.58098 -67.66778 10804 ft 285 kts 84°
2026-05-04 19:23 10.58233 -67.64797 10462 ft 280 kts 90°
2026-05-04 19:23 10.58298 -67.62822 10118 ft 279 kts 90°
2026-05-04 19:23 10.58364 -67.60852 9764 ft 279 kts 91°
2026-05-04 19:24 10.58432 -67.58881 9397 ft 278 kts 91°
2026-05-04 19:24 10.58502 -67.56919 9046 ft 277 kts 91°
2026-05-04 19:24 10.58570 -67.54967 8698 ft 276 kts 91°
2026-05-04 19:24 10.58636 -67.53021 8357 ft 275 kts 90°
2026-05-04 19:25 10.58700 -67.51111 8017 ft 274 kts 90°
2026-05-04 19:25 10.58763 -67.49179 7673 ft 273 kts 90°
2026-05-04 19:25 10.58828 -67.47254 7329 ft 273 kts 90°
2026-05-04 19:25 10.58894 -67.45329 6985 ft 272 kts 91°
2026-05-04 19:26 10.58959 -67.43407 6644 ft 272 kts 90°
2026-05-04 19:26 10.59028 -67.41487 6297 ft 272 kts 91°
2026-05-04 19:26 10.59096 -67.39564 5941 ft 272 kts 90°
2026-05-04 19:26 10.59163 -67.37649 5592 ft 271 kts 90°
2026-05-04 19:27 10.59228 -67.35743 5245 ft 267 kts 90°
2026-05-04 19:27 10.59292 -67.33874 4912 ft 262 kts 90°
2026-05-04 19:27 10.59355 -67.32027 4572 ft 261 kts 90°
2026-05-04 19:27 10.59417 -67.30188 4221 ft 260 kts 89°
2026-05-04 19:28 10.59478 -67.28363 3997 ft 255 kts 89°
2026-05-04 19:28 10.59535 -67.26619 3992 ft 241 kts 89°
2026-05-04 19:28 10.59588 -67.24925 3997 ft 239 kts 89°
2026-05-04 19:28 10.59641 -67.23281 4013 ft 226 kts 89°
2026-05-04 19:29 10.59693 -67.21709 4016 ft 222 kts 89°
2026-05-04 19:29 10.59746 -67.20155 4005 ft 219 kts 90°
2026-05-04 19:29 10.59793 -67.18581 3604 ft 228 kts 88°
2026-05-04 19:29 10.59837 -67.16941 3014 ft 237 kts 88°
2026-05-04 19:30 10.59882 -67.15241 2329 ft 244 kts 89°
2026-05-04 19:30 10.59926 -67.13556 1881 ft 228 kts 88°
2026-05-04 19:30 10.59966 -67.12017 1742 ft 203 kts 89°
2026-05-04 19:30 10.60000 -67.10696 1654 ft 173 kts 89°
2026-05-04 19:31 10.60030 -67.09525 1558 ft 160 kts 89°
2026-05-04 19:31 10.60059 -67.08409 1488 ft 156 kts 88°
2026-05-04 19:31 10.60086 -67.07323 1416 ft 154 kts 88°
2026-05-04 19:31 10.60107 -67.06236 1293 ft 155 kts 88°
2026-05-04 19:32 10.60139 -67.05145 1056 ft 154 kts 89°
2026-05-04 19:32 10.60136 -67.04080 872 ft 151 kts 91°
2026-05-04 19:32 10.60152 -67.03009 622 ft 150 kts 89°
2026-05-04 19:32 10.60180 -67.01961 374 ft 147 kts 86°
2026-05-04 19:33 10.60218 -67.00896 244 ft 151 kts 86°
2026-05-04 19:33 10.60251 -66.99902 202 ft 127 kts 86°
2026-05-04 19:33 10.60273 -66.99256 173 ft 49 kts 88°
2026-05-04 19:33 10.60275 -66.99140 171 ft 7 kts 97°
2026-05-04 19:34 10.60238 -66.99120 170 ft 7 kts 171°
2026-05-04 19:34 10.60195 -66.99114 172 ft 5 kts 173°
2026-05-04 19:34 10.60177 -66.99112 173 ft 3 kts 172°
2026-05-04 19:34 10.60151 -66.99107 175 ft 4 kts 168°
2026-05-04 19:35 10.60118 -66.99099 177 ft 6 kts 166°
2026-05-04 19:35 10.60063 -66.99084 177 ft 11 kts 165°
2026-05-04 19:35 10.60024 -66.99122 177 ft 10 kts 264°
2026-05-04 19:35 10.60004 -66.99217 175 ft 17 kts 256°
2026-05-04 19:36 10.59970 -66.99360 172 ft 24 kts 256°
2026-05-04 19:36 10.59930 -66.99529 170 ft 25 kts 256°
2026-05-04 19:36 10.59909 -66.99660 169 ft 11 kts 302°
2026-05-04 19:36 10.59978 -66.99670 171 ft 9 kts
2026-05-04 19:37 10.60034 -66.99669 175 ft 8 kts
2026-05-04 19:37 10.60093 -66.99671 180 ft 7 kts 358°
2026-05-04 19:37 10.60128 -66.99690 183 ft 8 kts 295°
2026-05-04 19:37 10.60135 -66.99777 182 ft 17 kts 269°
2026-05-04 19:38 10.60127 -66.99910 188 ft 19 kts 263°
2026-05-04 19:38 10.60116 -67.00039 199 ft 18 kts 268°
2026-05-04 19:38 10.60112 -67.00158 201 ft 16 kts 268°
2026-05-04 19:38 10.60108 -67.00266 208 ft 11 kts 265°
2026-05-04 19:39 10.60054 -67.00305 197 ft 11 kts 172°
2026-05-04 19:39 10.59961 -67.00299 207 ft 15 kts 185°
2026-05-04 19:39 10.59919 -67.00361 197 ft 11 kts 274°
2026-05-04 19:39 10.59920 -67.00436 204 ft 10 kts 269°
2026-05-04 19:40 10.59918 -67.00502 208 ft 9 kts 268°
2026-05-04 19:40 10.59916 -67.00559 201 ft 8 kts 268°
2026-05-04 19:40 10.59913 -67.00579 201 ft 2 kts 242°
2026-05-04 19:40 10.59885 -67.00591 203 ft 6 kts 184°
2026-05-04 19:41 10.59841 -67.00588 200 ft 0 kts 176°
2026-05-04 19:41 10.59839 -67.00588 200 ft 0 kts 177°